This demonstration page uses our WeatherBlox Daily Observations layout. Learn more.

Left ArrowRight Arrow

Hourly Observations for July 30, 2016

Temp ( °F °C ) Dew Point ( °F °C ) Humidity (%) Winds ( mph kmh ) Pressure ( in mb ) Visibility ( mi km ) Precip ( " mm )
12:15 am 00:15 Clear 77 25 73 23 89 89 SW 3 6 29.94 1014 10 16 N/A
12:35 am 00:35 Clear 75 24 73 23 94 94 WSW 5 7 29.97 1015 10 16 N/A
12:55 am 00:55 Clear 77 25 73 23 89 89 SW 3 6 29.97 1015 10 16 N/A
1:15 am 01:15 Clear 77 25 73 23 89 89 SW 3 6 29.97 1015 10 16 N/A
1:35 am 01:35 Clear 75 24 73 23 94 94 SW 10 17 29.94 1014 10 16 N/A
1:55 am 01:55 Clear 75 24 73 23 94 94 S 5 7 29.94 1014 10 16 N/A
2:15 am 02:15 Clear 75 24 73 23 94 94 SSW 10 17 29.94 1014 10 16 N/A
2:35 am 02:35 Clear 75 24 73 23 94 94 SW 7 11 29.94 1014 10 16 N/A
2:55 am 02:55 Clear 73 23 73 23 100 100 N N/A 29.94 1014 10 16 N/A
3:15 am 03:15 Clear 73 23 73 23 100 100 N N/A 29.94 1014 10 16 N/A
3:35 am 03:35 Clear 73 23 73 23 100 100 S 3 6 29.94 1014 10 16 N/A
3:55 am 03:55 Clear 73 23 73 23 100 100 N N/A 29.94 1014 10 16 N/A
4:15 am 04:15 Clear 73 23 73 23 100 100 N N/A 29.94 1014 7 11 N/A
4:35 am 04:35 Clear 73 23 73 23 100 100 NNE 5 7 29.94 1014 10 16 N/A
4:55 am 04:55 Clear 73 23 73 23 100 100 S 3 6 29.94 1014 10 16 N/A
5:15 am 05:15 Clear 75 24 73 23 94 94 N N/A 29.94 1014 10 16 N/A
5:35 am 05:35 Clear 73 23 73 23 100 100 N N/A 29.94 1014 10 16 N/A
5:55 am 05:55 Clear 73 23 73 23 100 100 WNW 9 15 29.97 1015 7 11 N/A
6:15 am 06:15 Sunny 73 23 73 23 100 100 NNE 7 11 29.97 1015 10 16 N/A
6:35 am 06:35 Partly Cloudy 73 23 73 23 100 100 SSE 3 6 29.97 1015 10 16 N/A
6:55 am 06:55 Sunny 73 23 73 23 100 100 N N/A 29.97 1015 10 16 N/A
7:15 am 07:15 Sunny 73 23 73 23 100 100 N N/A 30.00 1016 7 11 N/A
7:35 am 07:35 Sunny 75 24 75 24 100 100 S 5 7 30.00 1016 10 16 N/A
7:55 am 07:55 Sunny 77 25 75 24 94 94 SSW 9 15 30.00 1016 10 16 N/A
8:15 am 08:15 Sunny 77 25 75 24 94 94 S 8 13 30.00 1016 10 16 N/A
8:35 am 08:35 Partly Cloudy 77 25 75 24 94 94 S 9 15 30.00 1016 10 16 N/A
8:55 am 08:55 Mostly Cloudy 79 26 77 25 94 94 S 8 13 30.00 1016 10 16 N/A
9:15 am 09:15 Cloudy 81 27 77 25 89 89 SSW 10 17 30.00 1016 10 16 N/A
9:35 am 09:35 Cloudy 81 27 75 24 84 84 S 9 15 30.00 1016 10 16 N/A
9:55 am 09:55 Cloudy 82 28 75 24 79 79 S 10 17 30.00 1016 10 16 N/A
10:15 am 10:15 Cloudy 84 29 75 24 74 74 S 13 20 30.00 1016 10 16 N/A
10:35 am 10:35 Cloudy 84 29 73 23 70 70 S 12 19 30.00 1016 10 16 N/A
10:55 am 10:55 Cloudy 86 30 75 24 70 70 S 16 26 30.00 1016 10 16 N/A
11:15 am 11:15 Cloudy 86 30 75 24 70 70 S 12 19 30.00 1016 10 16 N/A
11:35 am 11:35 Cloudy 86 30 75 24 70 70 S 16 26 29.94 1014 10 16 N/A
11:55 am 11:55 Mostly Cloudy 88 31 75 24 66 66 S 18 30 29.94 1014 10 16 N/A
12:15 pm 12:15 Mostly Cloudy 88 31 75 24 66 66 SSW 18 30 29.94 1014 10 16 N/A
12:35 pm 12:35 Mostly Cloudy 86 30 73 23 66 66 S 18 30 29.94 1014 10 16 N/A
12:55 pm 12:55 Partly Cloudy 88 31 77 25 70 70 S 17 28 29.94 1014 10 16 N/A
1:15 pm 13:15 Mostly Cloudy 88 31 73 23 62 62 S 20 31 29.94 1014 10 16 N/A
1:35 pm 13:35 Mostly Cloudy 88 31 73 23 62 62 S 20 31 29.94 1014 10 16 N/A
1:55 pm 13:55 Mostly Cloudy 88 31 75 24 66 66 SSE 13 20 29.94 1014 10 16 N/A
2:15 pm 14:15 Mostly Cloudy 88 31 75 24 66 66 S 16 26 29.91 1013 10 16 N/A
2:35 pm 14:35 Mostly Cloudy 88 31 73 23 62 62 SSE 15 24 29.91 1013 10 16 N/A
2:55 pm 14:55 Partly Cloudy 90 32 75 24 63 63 S 20 31 29.91 1013 10 16 N/A
3:15 pm 15:15 Mostly Cloudy 90 32 73 23 59 59 S 18 30 29.91 1013 10 16 N/A
3:35 pm 15:35 Mostly Cloudy 90 32 75 24 63 63 S 15 24 29.88 1012 10 16 N/A
3:50 pm 15:50 Mostly Cloudy 88 31 75 24 66 66 S 10 17 29.88 1012 10 16 N/A
4:15 pm 16:15 Mostly Cloudy 88 31 75 24 66 66 S 12 19 29.88 1012 10 16 N/A
4:35 pm 16:35 Cloudy with Rain 86 30 79 26 79 79 S 13 20 29.88 1012 10 16 N/A
4:55 pm 16:55 Cloudy with Light Rain 82 28 79 26 89 89 S 13 20 29.91 1013 10 16 N/A
5:15 pm 17:15 Mostly Cloudy 81 27 79 26 94 94 S 10 17 29.91 1013 10 16 N/A
5:35 pm 17:35 Partly Cloudy 81 27 77 25 89 89 N N/A 29.94 1014 10 16 N/A
5:55 pm 17:55 Partly Cloudy with Thunderstorms 81 27 79 26 94 94 S 8 13 29.91 1013 7 11 N/A
6:15 pm 18:15 Mostly Cloudy 81 27 79 26 94 94 SSE 3 6 29.94 1014 7 11 N/A
6:35 pm 18:35 Mostly Cloudy 79 26 77 25 94 94 SW 7 11 29.94 1014 10 16 N/A
6:55 pm 18:55 Cloudy 77 25 75 24 94 94 NNE 9 15 29.94 1014 10 16 N/A
7:15 pm 19:15 Cloudy with Strong Thunderstorms 73 23 72 22 94 94 NW 22 35 30.00 1016 2 3 N/A
7:35 pm 19:35 Cloudy with Strong Thunderstorms 72 22 72 22 100 100 S 8 13 29.97 1015 2 3 N/A
7:55 pm 19:55 Mostly Cloudy with Thunderstorms 72 22 72 22 100 100 ESE 7 11 29.97 1015 7 11 N/A
8:15 pm 20:15 Mostly Cloudy with Rain 72 22 72 22 100 100 S 7 11 29.97 1015 7 11 N/A
8:35 pm 20:35 Mostly Cloudy with Light Rain 72 22 72 22 100 100 S 7 11 30.00 1016 10 16 N/A
8:55 pm 20:55 Mostly Cloudy with Light Rain 72 22 72 22 100 100 S 5 7 29.97 1015 10 16 N/A
9:15 pm 21:15 Partly Cloudy 72 22 72 22 100 100 N N/A 29.97 1015 10 16 N/A
9:35 pm 21:35 Partly Cloudy 72 22 72 22 100 100 W 3 6 29.97 1015 10 16 N/A
9:55 pm 21:55 Cloudy 72 22 72 22 100 100 WNW 6 9 29.97 1015 10 16 N/A
10:15 pm 22:15 Cloudy 72 22 72 22 100 100 N 5 7 30.00 1016 10 16 N/A
10:35 pm 22:35 Mostly Cloudy 72 22 72 22 100 100 NNW 5 7 30.00 1016 10 16 N/A
10:55 pm 22:55 Partly Cloudy 72 22 72 22 100 100 WNW 5 7 30.00 1016 10 16 N/A
11:15 pm 23:15 Clear 72 22 72 22 100 100 SW 5 7 30.00 1016 10 16 N/A
11:35 pm 23:35 Partly Cloudy 72 22 72 22 100 100 S 5 7 30.00 1016 10 16 N/A
11:55 pm 23:55 Mostly Cloudy 72 22 72 22 100 100 S 5 7 30.00 1016 10 16 N/A

Powered by AerisWeather